Regional Weather Roundup
Issued by NWS

Home | Current Version | Previous Version | Text Only | Print | Product List | Glossary Off
Versions: 1 2 3 4 5 6 7 8 9 10 11 12 13 14 15 16 17 18 19 20 21 22 23 24 25 26 27 28 29 30 31 32 33 34 35 36 37 38 39 40 41 42 43 44 45 46 47 48 49 50

000
ASUS43 KMPX 231001
RWRMN
WEATHER ROUNDUP FOR MINNESOTA
NATIONAL WEATHER SERVICE TWIN CITIES/CHANHASSEN MN
400 AM CST SUN NOV 23 2014


NOTE: "FAIR" INDICATES FEW OR NO CLOUDS BELOW 12,000 FEET WITH NO
SIGNIFICANT WEATHER AND/OR OBSTRUCTIONS TO VISIBILITY. N/A MEANS
CURRENT SKY AND/OR WEATHER CONDITIONS ARE NOT AVAILABLE.

MNZ060>063-068>070-231100-
   Twin Cities Metro

CITY           SKY/WX    TMP DP  RH WIND       PRES   REMARKS
TWIN CITIES    CLOUDY    50  48  93 S10       29.44F
ST PAUL        FOG       42  42 100 CALM      29.45F VSB 1/2
CRYSTAL        CLOUDY    49  46  90 SW8       29.42F
BLAINE         CLOUDY    48  48 100 S8        29.44S
LAKEVILLE      CLOUDY    50  48  93 S9        29.44F
EDEN PRAIRIE   CLOUDY    51  49  92 SW10      29.43F
SOUTH ST PAUL  CLOUDY    49  47  95 S3        29.45F FOG
LAKE ELMO      CLOUDY    45  45 100 S8        29.46F FOG
$$
MNZ001>005-007-008-013>017-022>024-027-028-231100-
   Northwest Minnesota

CITY           SKY/WX    TMP DP  RH WIND       PRES   REMARKS
BEMIDJI        SNOW      32  32 100 S5        29.37S VSB 1/2 WCI  27
HALLOCK        CLOUDY    34  32  93 S12       29.34F FOG     WCI  25
ROSEAU         CLOUDY    36  30  80 S7        29.36F HAZE
WARROAD        CLOUDY    34  30  86 SE8       29.36F FOG     WCI  27
THIEF RVR FALL CLOUDY    34  34 100 SW13      29.37S WCI  25
CROOKSTON      CLOUDY    34  34 100 SW8       29.38R FOG     WCI  27
FOSSTON        CLOUDY    32  30  93 S12       29.37S FOG     WCI  23
DETROIT LAKES  CLOUDY    34  34 100 S6        29.39S FOG     WCI  29
MOORHEAD       FOG       34  34 100 S7        29.40S VSB 3/4 WCI  28
PARK RAPIDS    FOG       33  33 100 S5        29.37S VSB 1/4 WCI  29
MAHNOMEN       CLOUDY    33  32  98 S9        29.38R FOG     WCI  25
$$
MNZ006-009>011-018-025>026-231100-
   North Central Minnesota

CITY           SKY/WX    TMP DP  RH WIND       PRES   REMARKS
BAUDETTE       CLOUDY    33  31  92 S5        29.38F FOG     WCI  29
FLAG ISLAND    CLOUDY    32  30  93 S14       29.36F FOG     WCI  22
INTL FALLS     CLOUDY    33  31  92 SE3       29.40F FOG
WASKISH        CLOUDY    34  32  93 CALM      29.39F FOG
BIG FORK       FOG       34  32  93 CALM      29.39F VSB 1
LONGVILLE      FOG       34  34 100 SE3       29.37F VSB 1/4
GRAND RAPIDS   CLOUDY    36  30  80 SE3       29.38F VSB 3/4
CRANE LAKE     CLOUDY    32  30  93 CALM      29.44F FOG
ORR            CLOUDY    32  30  93 CALM      29.38F FOG
COOK           CLOUDY    34  32  93 E3        29.40F FOG
WALKER         FOG       32  32 100 S3        29.38F VSB 1/4
$$
MNZ012-019>021-037-231100-
   Northeast Minnesota

CITY           SKY/WX    TMP DP  RH WIND       PRES   REMARKS
DULUTH         DRZL/FOG  35  33  92 SE8       29.41F VSB 1/4 WCI  29
ELY            CLOUDY    34  32  93 CALM      29.43F FOG
HIBBING        FOG       34  32  92 SE6       29.40F VSB 1   WCI  29
EVELETH        CLOUDY    34  34 100 CALM      29.41F FOG
DULUTH HARBOR  CLOUDY    37  36  93 NE10      29.45F FOG
TWO HARBORS    DRIZZLE   37  32  81 NE6       29.42F
SILVER BAY     DRIZZLE   36  36 100 NE8       29.44F
GRAND MARAIS     N/A     37  34  89 E12       29.50F
G MARAIS ARPRT CLOUDY    30  28  93 E6        29.46F VSB<1/4 WCI  24
$$
MNZ029>031-032-039>041-046>048-054>057-064-231100-
   West Central Minnesota

CITY           SKY/WX    TMP DP  RH WIND       PRES   REMARKS
FERGUS FALLS   CLOUDY    34  32  93 SW5       29.43S FOG     WCI  30
WHEATON        CLOUDY    34  30  86 W3        29.42S
MORRIS         CLOUDY    36  34  93 CALM      29.39S
ALEXANDRIA     CLOUDY    35  33  92 W8        29.39F WCI  29
ELBOW LAKE       N/A     33  32  95 W7        29.40S WCI  27
WADENA         CLOUDY    34  34 100 SW5       29.38S FOG     WCI  30
GLENWOOD       CLOUDY    36  34  93 SW7       29.40S
APPLETON       CLOUDY    37  32  81 NE3       29.38F
BENSON         CLOUDY    36  34  93 CALM      29.39F
ORTONVILLE     CLOUDY    39  30  70 W6        29.38F
MADISON        CLOUDY    41  34  75 S5        29.39R
WILLMAR        FAIR      39  34  81 NW6       29.39F
$$
MNZ033>034-036-042>043-049>051-058-059-231100-
   Central Minnesota

CITY           SKY/WX    TMP DP  RH WIND       PRES   REMARKS
ST CLOUD       CLOUDY    39  37  92 S7        29.42R FOG
SAUK CENTRE    CLOUDY    35  33  92 SW6       29.40S WCI  30
PAYNESVILLE    CLOUDY    36  33  89 S3        29.40F
AITKIN         HAZE      39  34  81 CALM      29.37F VSB<1/4
PINE RIVER     FOG       34  34 100 CALM      29.42F VSB<1/4
BRAINERD       FOG       35  35 100 S5        29.39F VSB 1/2 WCI  31
STAPLES        FOG       34  34 100 CALM      29.38S VSB 1/4
LONG PRAIRIE   CLOUDY    34  34 100 SW6       29.39S FOG     WCI  29
LITTLE FALLS   FOG       34  34 100 SE3       29.40S VSB 3/4
LITCHFIELD     CLOUDY    39  39 100 CALM      29.40F FOG
BUFFALO        CLOUDY    42  41  95 S6        29.45R FOG
MAPLE LAKE     FOG       42  41  98 S3        29.44R VSB 3/4
$$
MNZ037-044-045-052-053-231100-
   East Central Minnesota

CITY           SKY/WX    TMP DP  RH WIND       PRES   REMARKS
PRINCETON      FOG       43  41  93 S6        29.42S VSB 1
MORA           FOG       36  36 100 S3        29.43F VSB 1/4
CAMBRIDGE      HAZE      45  37  76 S6        29.41F VSB 3/4
RUSH CITY      FOG       39  38  97 S3        29.43F VSB 3/4
MOOSE LAKE     FOG       37  37 100 CALM      29.40S VSB 1/4
HINCKLEY       FOG       39  39 100 SW3       29.42F VSB 1/4
CLOQUET        FOG       36  34  93 CALM      29.41F VSB<1/4
MCGREGOR       CLOUDY    36  36 100 SE3       29.39F VSB<1/4
$$
MNZ071>073-080-081-089-090-097-098-231100-
   Southwest Minnesota

CITY           SKY/WX    TMP DP  RH WIND       PRES   REMARKS
MONTEVIDEO     CLOUDY    37  37 100 NW5       29.39F
GRANITE FALLS  CLOUDY    37  34  91 SE7       29.40F
CANBY          CLOUDY    39  34  81 CALM      29.40S
MARSHALL       CLOUDY    41  36  81 S6        29.40S
REDWOOD FALLS  CLOUDY    44  42  93 CALM      29.40F
OLIVIA         CLOUDY    39  37  93 S6        29.41S FOG
PIPESTONE      MOCLDY    37  37 100 CALM      29.39F FOG
WINDOM           N/A     48  46  93 S6        29.42F FOG
WORTHINGTON    CLOUDY    48  46  93 S14       29.39F
JACKSON        CLOUDY    50  46  87 S9        29.43F FOG
TRACY          CLOUDY    45  42  92 SW12      29.39F
SLAYTON        FOG       42  42 100 CALM      29.41F VSB 1/2
$$
MNZ065>067-074>077-082>085-091>093-231100-
   South Central Minnesota

CITY           SKY/WX    TMP DP  RH WIND       PRES   REMARKS
MANKATO        CLOUDY    52  46  82 SW10      29.45F
NEW ULM        CLOUDY    46  46 100 S9        29.42F FOG
ST JAMES       CLOUDY    50  48  93 S9        29.44F FOG
FAIRMONT       CLOUDY    50  46  87 S12       29.45F
GLENCOE        CLOUDY    47  46  98 S7        29.43S FOG
FARIBAULT      CLOUDY    52  48  87 S8        29.47F
OWATONNA       CLOUDY    52  48  87 S16       29.47F
WASECA         CLOUDY    50  46  87 S13       29.47F
ALBERT LEA     CLOUDY    52  52 100 S12       29.48F FOG
$$
MNZ078>079-086>088-094>096-231100-
   Southeast Minnesota

CITY           SKY/WX    TMP DP  RH WIND       PRES   REMARKS
ROCHESTER      CLOUDY    48  47  96 S15       29.52F FOG
RED WING         N/A     52  48  87 S8        29.47F
STANTON        CLOUDY    51  48  89 S10       29.45F
DODGE CENTER   CLOUDY    48  48 100 S13       29.49F FOG
WINONA         CLOUDY    52  48  87 S6        29.54F
AUSTIN         CLOUDY    48  48 100 S13       29.51S FOG
PRESTON        CLOUDY    48  47  96 S12       29.54F FOG
$$
ABBREVIATIONS USED IN REMARKS
   TC - TEMPERATURES IN CELSIUS
  WCI - WIND CHILL INDEX
   HX - HEAT INDEX
  VSB - VISIBILITY
$$


USA.gov is the U.S. government's official web portal to all federal, state and local government web resources and services.